Theta_e
333 332 328 316 310 306 305 305 306 308 308 309 309 310 310 310 309 309 308 307 307 306 306 305 303 302 302 302 301 302 301 301 300 303 309 314 321 320 319 317 317 318 321
333 331 327 312 308 305 305 306 307 308 309 309 310 310 310 309 309 308 307 306 305 304 304 303 302 301 301 300 300 300 300 300 300 304 308 318 320 317 317 316 314 315 319
333 329 321 310 306 305 305 306 308 308 309 309 309 309 309 308 308 307 306 305 304 303 302 302 301 300 299 299 299 299 299 299 300 303 304 305 310 313 315 314 315 314 314
332 328 315 308 305 305 305 307 307 308 309 309 309 308 308 307 307 306 305 304 303 302 301 300 299 298 298 298 298 298 298 298 298 302 302 303 305 307 307 309 310 313 311
329 322 310 306 305 305 305 306 307 308 308 308 308 307 306 306 305 305 304 303 302 301 300 300 300 299 298 298 297 297 298 298 297 302 302 302 303 304 306 304 304 310 310
325 314 307 305 304 305 305 306 307 307 307 307 307 306 305 305 304 303 302 301 301 300 300 299 298 298 297 297 296 296 296 297 300 301 301 301 302 304 307 306 307 310 310
324 313 306 304 304 304 305 306 306 307 306 306 305 305 304 304 303 302 300 299 299 298 297 297 296 296 296 295 295 295 295 296 300 300 300 300 301 304 306 308 309 310 309
323 309 306 305 304 305 305 306 306 305 305 304 304 304 304 304 302 301 300 300 299 298 297 296 296 295 295 296 296 295 296 298 299 299 299 301 302 303 305 308 309 309 309
322 309 306 305 305 305 305 305 304 304 304 304 304 303 303 304 303 301 301 301 300 299 298 298 297 296 296 299 299 296 298 299 299 299 300 301 301 307 309 308 308 307 307
319 313 309 307 305 305 305 304 304 304 305 305 304 304 303 302 302 301 301 300 299 299 299 299 300 297 299 296 297 298 298 297 298 298 300 299 300 303 307 308 307 307 307
319 316 316 312 310 308 305 305 305 305 306 305 302 303 302 302 302 301 301 300 299 300 300 300 299 298 297 295 294 295 294 295 298 297 298 299 300 299 302 304 305 305 305
320 319 318 318 316 311 307 306 306 305 305 305 303 302 302 302 302 301 300 300 299 299 298 297 296 296 295 295 295 295 294 294 296 296 297 297 298 299 298 297 302 304 304
320 319 318 317 314 309 307 306 305 305 305 305 304 303 302 302 301 300 299 299 299 298 298 296 295 295 295 294 294 294 294 294 294 296 296 297 297 297 297 297 299 301 302
320 318 318 316 312 308 307 306 305 305 304 304 306 306 307 302 301 297 298 299 298 298 297 294 295 295 294 294 294 294 294 294 294 294 295 296 296 296 295 295 297 299 299
319 317 316 316 315 309 307 306 306 305 304 304 304 305 305 304 303 296 297 298 297 297 295 294 294 294 293 293 294 294 295 294 294 295 294 295 295 295 295 294 295 296 297
318 316 315 315 313 308 308 307 305 305 304 303 304 306 303 302 302 297 295 296 296 296 293 294 294 294 293 293 293 294 294 295 294 295 295 295 295 295 295 295 295 295 296
317 315 314 313 311 309 307 305 305 305 304 306 307 303 301 301 300 296 293 295 294 293 293 293 293 293 292 293 293 294 294 294 294 295 295 295 295 295 294 294 295 295 296
317 315 312 311 310 308 307 306 305 305 307 306 303 302 301 300 296 293 292 293 293 293 293 293 293 292 292 292 292 293 293 293 294 294 295 295 295 294 294 294 294 295 295
315 312 310 309 309 307 306 305 305 309 305 300 300 300 299 297 295 293 292 293 293 292 292 292 292 292 292 291 291 291 292 293 292 293 295 295 295 295 294 293 293 293 293
311 310 310 309 307 305 305 304 306 304 301 300 300 299 297 296 295 293 292 291 292 291 292 292 292 291 291 290 290 290 291 291 292 294 294 294 294 294 293 293 292 292 292
310 310 309 308 305 305 303 304 303 300 300 299 298 298 295 294 294 293 292 291 290 291 291 292 291 290 290 290 290 289 290 290 292 292 293 293 293 293 292 292 292 292 292
309 308 307 306 305 303 306 302 301 300 298 300 296 295 294 294 293 293 292 292 291 291 291 291 291 290 290 289 289 289 288 290 292 291 291 292 293 292 292 292 291 291 291
308 306 306 305 305 303 302 302 300 298 296 296 295 295 294 293 292 292 292 292 291 290 290 291 290 290 289 289 289 289 288 289 287 288 289 289 289 290 290 291 290 290 290
306 305 304 304 302 302 301 299 297 296 296 295 294 293 293 292 292 292 291 291 290 290 290 290 290 290 289 289 289 288 288 286 286 286 287 287 288 287 288 288 289 290 289
304 304 303 302 303 301 298 297 294 292 294 293 293 293 292 292 291 291 291 291 290 290 290 290 290 289 289 289 288 288 287 285 286 286 287 286 287 287 287 287 287 288 288
304 303 301 303 299 297 296 295 294 293 293 293 292 291 291 291 291 291 291 290 290 290 290 289 289 289 288 288 287 287 285 285 285 285 285 285 285 286 286 287 287 287 288
Wind_Speed
18 12 11 8 6 5 5 6 7 7 8 9 10 11 11 12 13 13 14 15 16 16 17 17 17 16 16 16 16 15 14 13 11 9 10 9 9 4 4 8 5 4 2
13 14 13 10 8 7 7 7 7 7 7 8 9 10 10 12 13 14 15 16 16 17 17 18 18 18 16 15 15 15 14 11 8 7 11 8 1 7 8 5 10 9 5
12 17 14 11 9 8 8 7 6 6 6 7 8 10 11 13 14 14 15 16 17 17 17 18 18 17 17 16 16 16 14 11 7 5 5 8 7 6 6 9 8 10 7
10 18 15 12 10 9 8 7 6 5 6 7 8 10 11 13 14 15 16 17 18 18 18 18 18 17 17 16 15 14 13 10 5 7 4 2 6 9 12 11 11 10 11
17 19 16 13 11 9 8 6 5 5 6 7 8 11 12 13 13 15 16 17 17 17 18 19 18 18 17 16 15 14 12 9 5 5 3 6 8 11 11 14 14 9 10
19 18 16 13 11 10 8 6 5 5 5 7 9 10 11 12 14 15 16 17 17 18 19 18 18 17 16 15 14 14 12 9 7 6 6 8 11 9 10 14 10 7 9
16 16 16 13 11 9 7 5 4 3 5 7 9 10 11 12 14 15 16 17 18 18 17 17 17 16 15 14 13 13 11 8 6 8 8 11 12 10 11 10 7 7 9
11 15 15 13 11 9 7 5 3 4 6 8 10 12 12 12 15 18 20 22 21 20 18 17 17 16 14 14 13 12 9 7 3 5 11 12 12 12 13 9 6 7 8
11 15 14 12 11 8 6 4 4 5 7 9 12 14 15 17 19 18 19 22 23 21 18 18 18 21 14 18 17 12 8 6 6 9 12 12 11 10 10 6 6 8 8
10 10 9 8 8 6 5 4 6 7 8 10 13 14 15 17 15 20 20 21 22 23 24 23 21 22 17 18 13 17 12 7 4 13 11 15 12 9 7 7 5 4 5
7 6 6 5 8 5 8 9 10 11 12 15 15 12 15 14 17 17 18 20 22 22 17 16 16 15 17 21 14 15 15 9 0 15 13 14 13 12 6 6 5 6 6
7 6 4 6 9 5 12 11 13 15 14 12 13 10 10 11 13 14 12 15 15 12 15 19 15 15 18 17 16 18 17 14 5 10 11 12 15 13 15 10 6 6 7
7 9 7 6 7 8 9 11 12 10 10 14 11 11 13 13 14 15 13 13 14 17 18 20 16 16 18 13 14 18 18 18 16 11 12 12 15 14 15 13 8 7 7
13 17 16 13 10 6 4 6 3 3 6 13 16 17 19 16 17 16 11 13 16 19 21 19 17 20 14 12 12 13 15 18 16 18 11 11 14 16 14 13 9 8 8
22 21 18 12 11 5 4 5 5 4 7 12 15 18 15 19 20 17 10 12 19 22 23 16 18 21 17 13 12 11 15 16 13 17 18 14 13 15 14 16 10 9 9
24 19 14 8 5 9 4 6 5 5 8 10 14 17 19 22 22 19 13 13 19 22 18 16 21 22 19 15 13 12 18 16 14 11 16 17 18 13 13 13 14 10 10
21 16 10 6 4 3 4 2 4 7 11 11 16 13 15 20 23 21 15 15 20 22 14 17 21 22 18 16 10 14 19 18 11 14 15 19 17 9 11 15 12 13 14
19 12 7 3 2 2 2 3 6 11 15 16 10 12 17 21 23 21 15 15 20 18 14 18 22 22 20 18 17 20 19 13 16 18 14 14 13 11 14 16 14 14 13
14 11 8 2 3 2 3 5 7 18 14 10 6 13 20 24 21 22 15 16 16 16 16 17 20 21 23 21 22 23 18 17 21 14 8 10 8 14 16 12 15 17 17
13 9 6 3 3 1 4 8 16 12 9 9 9 16 21 23 25 26 20 16 14 17 15 17 21 23 23 21 25 26 24 18 8 6 4 5 7 8 9 11 12 17 13
12 8 3 2 1 2 4 10 9 9 9 12 12 14 13 19 25 25 23 20 20 16 17 19 22 23 24 25 28 32 27 16 7 6 3 5 1 3 5 8 11 12 14
8 3 1 0 3 4 7 8 9 10 10 6 8 10 20 20 24 25 26 25 27 17 19 20 22 23 25 24 27 25 22 20 6 14 8 5 4 6 8 7 10 13 15
6 4 1 3 2 7 9 9 6 3 4 4 9 14 16 15 20 21 22 22 27 20 20 20 24 23 24 25 26 20 12 8 36 20 15 15 12 13 12 13 11 14 14
4 1 2 5 9 10 10 10 11 10 10 11 14 12 12 14 15 17 20 22 28 21 19 22 23 22 24 25 28 26 22 21 23 21 26 26 21 20 20 18 20 18 17
2 2 5 9 10 11 13 16 15 12 12 12 14 14 14 11 14 17 21 26 24 20 20 22 22 21 23 26 29 28 31 23 18 20 27 32 30 25 22 21 17 16 16
4 6 7 12 13 15 15 16 16 14 12 12 17 17 14 17 17 18 22 25 20 20 21 21 21 24 27 29 27 25 23 21 21 22 26 31 34 31 22 17 17 16 14
Wind_Direction
193 188 170 163 152 135 125 119 107 95 80 68 57 47 37 30 24 16 11 6 3 1 360 359 359 359 358 359 358 3 10 14 28 49 38 52 70 353 326 329 325 324 1
193 187 170 161 155 150 144 137 123 102 81 62 50 39 30 21 18 13 8 4 3 1 0 359 359 358 359 359 359 1 9 20 40 63 66 80 5 314 347 342 316 343 17
202 176 166 160 159 158 152 143 120 94 69 53 40 29 22 15 13 10 6 3 3 1 360 358 358 358 358 359 360 360 3 16 51 61 72 25 338 311 348 340 354 2 356
189 172 163 162 164 160 150 138 112 86 61 40 27 22 16 13 9 7 4 4 2 360 358 357 358 358 357 357 358 358 360 9 48 49 52 9 292 299 305 315 327 351 344
180 164 164 164 164 157 150 131 109 75 49 30 20 18 14 11 7 6 5 4 2 359 357 354 352 352 353 355 355 356 358 8 48 81 10 333 301 299 316 313 317 344 359
158 162 162 163 161 157 147 126 92 61 39 25 21 17 13 9 8 7 6 3 0 359 357 354 352 351 352 354 357 359 3 17 100 46 21 328 293 304 336 326 336 351 5
158 166 161 162 161 155 140 119 97 64 41 31 26 19 15 13 11 15 8 6 4 1 356 355 353 352 354 358 1 6 12 29 116 43 7 324 307 328 343 358 15 360 8
174 168 161 160 161 154 142 133 96 54 42 36 31 25 16 17 20 13 14 11 8 4 1 3 1 359 356 359 6 17 30 36 80 31 357 326 321 337 341 3 1 2 5
190 176 166 159 156 154 145 117 77 59 52 46 38 32 19 11 8 10 7 4 7 2 5 5 5 7 2 2 359 11 23 355 33 344 352 322 326 3 7 16 7 360 7
183 172 150 143 140 129 108 81 60 49 44 35 29 21 16 16 7 0 4 360 1 4 8 4 4 351 356 345 354 349 333 333 50 353 341 319 315 337 356 27 20 344 343
156 154 106 125 107 80 64 47 44 39 32 32 23 29 15 4 0 358 353 353 356 357 6 347 352 345 324 333 343 339 336 333 328 4 345 316 312 317 325 307 326 332 335
128 99 64 50 39 50 37 39 37 21 13 25 11 8 16 360 338 344 350 345 351 334 325 322 334 329 329 339 352 341 341 340 269 351 333 316 323 329 316 297 291 300 320
129 128 150 92 45 39 19 54 43 19 352 349 356 14 358 335 341 339 336 353 331 315 320 321 330 321 334 344 344 333 339 334 332 285 316 310 320 330 329 326 317 294 306
146 154 148 127 126 97 100 121 150 302 325 320 355 343 343 347 341 344 358 349 316 317 326 330 337 330 336 338 326 330 331 322 333 335 305 312 312 317 325 331 326 314 307
159 167 171 187 186 182 190 219 256 276 318 347 334 331 341 341 338 345 341 345 320 321 332 339 330 324 328 325 313 324 330 317 313 317 318 305 303 306 321 326 338 329 315
164 166 170 188 204 193 249 270 294 337 343 322 322 336 344 333 336 345 339 330 320 329 332 339 323 316 324 317 323 326 322 300 298 310 302 297 309 294 311 324 330 341 329
159 156 156 158 169 203 196 246 302 325 328 330 326 341 320 325 328 339 334 325 325 333 332 327 315 320 327 329 317 330 309 306 300 305 308 294 303 277 292 301 308 341 327
143 138 135 144 180 199 266 272 309 335 339 333 329 313 330 328 327 338 329 327 328 330 326 322 324 339 337 334 328 319 318 320 305 294 283 287 296 268 290 291 283 305 311
136 138 133 123 313 344 291 304 331 340 348 5 337 340 326 332 338 338 326 326 318 323 322 337 335 337 333 331 326 317 314 315 315 307 297 275 275 288 298 287 287 302 310
126 124 131 146 104 297 343 354 335 347 354 1 338 327 321 332 337 340 338 332 324 333 341 342 333 333 334 331 322 319 319 330 325 342 262 246 280 297 276 285 301 308 315
126 128 141 270 72 298 323 313 335 11 13 26 353 314 331 340 339 343 346 349 346 348 347 337 333 334 335 339 331 333 337 350 216 15 276 247 306 225 257 295 304 306 292
120 122 281 18 301 295 312 342 2 13 26 8 338 335 342 341 339 340 343 342 348 346 344 335 336 332 331 338 333 336 341 347 282 313 279 279 291 311 281 292 290 299 296
136 147 209 303 3 2 359 360 356 14 56 318 314 314 340 346 343 342 340 333 337 341 335 332 332 334 330 328 328 335 341 315 314 315 296 300 302 304 297 278 286 283 293
127 303 330 30 22 10 8 1 354 349 337 344 338 344 337 335 343 336 330 327 331 337 333 329 328 327 323 321 324 323 319 311 311 309 310 313 312 304 299 293 289 280 283
3 25 47 33 18 17 17 8 3 14 11 353 334 327 331 332 333 331 326 327 337 339 334 328 328 324 319 319 322 319 320 316 306 298 301 306 306 306 306 304 297 292 289
32 9 33 24 29 27 11 360 5 3 351 335 335 341 353 340 338 335 332 332 339 333 329 326 322 319 320 321 318 316 321 311 308 306 301 300 305 305 307 300 299 298 297